Back to catalog

FENGYUN 1C DEB

AliveSSO
NORAD 31210·DEBRIS·🇨🇳 China

Launched May 10, 1999 from Taiyuan Satellite Launch Center

Loading…

Next Passes (next 24 hours)

TLE

AgingSource: Space-Track

Epoch: Sep 10, 2026, 05:38 UTC

1 31210U 99025BKQ 26253.23475894  .00000347  00000-0  21156-3 0  9994
2 31210  98.7277 251.9718 0018038 104.6078 317.7197 14.12306143997991

Track FENGYUN 1C DEB in real time with AllMySat

Download on the App Store